Racecast

Kearee Captain-Hogan

Hercules Running Rebels (CA) · - · PAC · Compare head to head

Athlete rating 108.8 2017 TF season
Best race 110.6 TF
Races 77
Seasons 5 2012 — 2017

RankedNation #16568·CA #1333·Team #8 ?

Rating scale ?
Speed rating — all races

Track & Field

TF speed rating

2017 TF 109.8

Hercules Running Rebels (CA) · Grade -

Date Meet Event Result Place Rating Difficulty PR/SR Flags
2017-06-17 Tommie Smith Youth Meet 400m 1:07.27 8th · 1st on team -0.036 ★PR SR
2017-06-17 Tommie Smith Youth Meet 100m 13.72 2nd · 1st on team -0.036 ★PR SR
2017-05-07 Hercules/Running Rebels USATF PA Youth T&F 800m 2:45.95 23rd · 2nd on team 109.0 -0.038
2017-05-07 Hercules/Running Rebels USATF PA Youth T&F 200m 28.86 29th · 3rd on team -0.038 ★PR SR
2017-04-15 C. A. Track Club Youth Meet - Registration on CoachO.com 400m 1:09.58 11th · 1st on team -0.038
2017-04-15 C. A. Track Club Youth Meet - Registration on CoachO.com 800m 2:43.38 9th · 1st on team 110.6 -0.038 ★PR ★R SR RSR
2017-03-04 Running Rebels All-Comers 400m 1:09.29 12th · 3rd on team -0.010 PR SR

2015 TF 89.2

Hercules Running Rebels (CA) · Grade 11-12

Date Meet Event Result Place Rating Difficulty PR/SR Flags
2015-05-31 PAC (Pacific Association Youth Champions 200m 29.13 19th · 1st on team -0.024 PR SR
2015-05-31 PAC (Pacific Association Youth Champions 400m 1:37.06 27th · 4th on team -0.024
2015-05-23 LA Jets 2015 Invitational 200m 30.2 39th · 1st on team -0.035 PR SR
2015-05-23 LA Jets 2015 Invitational 800m 2:50.67 26th · 1st on team 88.4 -0.035
2015-05-16 3M Track Club Track and Field Invitation 100m 15.1 33rd · 1st on team -0.028
2015-05-02 Running Rebels/Top Pacers Invitational 100m 14.97 26th · 2nd on team -0.038
2015-04-18 Shor/Sheppard Invitational 100m 15.03 8th · 3rd on team -0.022
2015-04-04 Sacramento Speed Factory 800m 2:48.14 6th · 1st on team 90.0 -0.033 PR R SR RSR
2015-04-04 Sacramento Speed Factory 100m 14.72 17th · 3rd on team -0.033 PR SR
2015-03-21 RPM Legacy 400m 1:19.18 51st · 2nd on team -0.020 SR
2015-03-21 RPM Legacy 100m 14.83 23rd · 2nd on team -0.020 PR SR

2014 TF 87.7

Hercules Running Rebels (CA) · Grade 9-10

Date Meet Event Result Place Rating Difficulty PR/SR Flags
2014-05-31 Pacific Association Championships (PAC) 400m 1:16.65 22nd · 1st on team -0.024
2014-05-31 Pacific Association Championships (PAC) 100m 15.08 18th · 1st on team -0.024
2014-05-18 3M Invitational 200m 32.67 9th · 1st on team -0.028 SR
2014-05-18 3M Invitational 100m 15.23 13th · 2nd on team -0.028
2014-05-18 3M Invitational 100m 15.11 10th · 1st on team -0.028
2014-05-18 3M Invitational 800m 2:54.36 6th · 1st on team 87.2 -0.028
2014-04-05 Sacramento Speed Showcase 100m 15.03 17th · 1st on team -0.033 PR SR
2014-04-05 Sacramento Speed Showcase 400m 1:15.7 13th · 1st on team -0.033 PR SR
2014-04-05 Sacramento Speed Showcase 800m 2:51.01 3rd · 1st on team 88.3 -0.033 PR R SR RSR
2014-03-29 East County Cheetahs TC 100m 16 14th · 1st on team -0.017 SR

2013 TF

Hercules Running Rebels (CA) · Grade 9-10

Date Meet Event Result Place Rating Difficulty PR/SR Flags
2013-07-12 Track City Classic shot 6.65m -0.035
2013-07-12 Track City Classic 200m 33.51 26th · 1st on team -0.035
2013-07-12 Track City Classic 100m 17.1 42nd · 1st on team -0.035
2013-06-08 Pacific Association Youth Championship (PAC) - 2-day meet 400m 1:19.52 14th · 1st on team -0.024
2013-06-08 Pacific Association Youth Championship (PAC) - 2-day meet 400m 2:08.04 17th · 2nd on team -0.024
2013-06-08 Pacific Association Youth Championship (PAC) - 2-day meet 200m 33.05 24th · 1st on team -0.024
2013-06-08 Pacific Association Youth Championship (PAC) - 2-day meet 200m 34.14 27th · 2nd on team -0.024
2013-06-01 100 Black Men Tommie Smith 400m 1:24.57 11th · 2nd on team -0.036
2013-06-01 100 Black Men Tommie Smith 100m 15.81 17th · 1st on team -0.036
2013-06-01 100 Black Men Tommie Smith 200m 32.45 6th · 1st on team -0.036 PR SR
2013-06-01 100 Black Men Tommie Smith 400m 1:15.99 3rd · 1st on team -0.036 PR SR
2013-06-01 100 Black Men Tommie Smith 200m 33.97 17th · 2nd on team -0.036
2013-05-18 3M Track Club 100m 15.87 36th · 1st on team -0.028
2013-05-18 3M Track Club 400m 1:24.18 26th · 1st on team -0.028
2013-05-04 Hercules / Running Rebels (2-day) 100m 15.45 40th · 1st on team -0.038 PR SR
2013-05-04 Hercules / Running Rebels (2-day) 100m 15.59 43rd · 2nd on team -0.038
2013-05-04 Hercules / Running Rebels (2-day) 400m 1:17.34 21st · 1st on team -0.038 PR SR
2013-05-04 Hercules / Running Rebels (2-day) 400m 1:33.25 56th · 2nd on team -0.038
2013-05-04 Hercules / Running Rebels (2-day) 200m 33.5 25th · 1st on team -0.038 PR SR
2013-05-04 Hercules / Running Rebels (2-day) 200m 34.15 32nd · 2nd on team -0.038
2013-04-20 Shor / Sheppard Classic 100m 16.07 28th · 2nd on team -0.022
2013-04-20 Shor / Sheppard Classic 100m 15.55 20th · 1st on team -0.022
2013-04-13 CA Track Club lj ND -0.038
2013-04-13 CA Track Club 100m 15.74 6th · 2nd on team -0.038 PR SR
2013-04-13 CA Track Club 400m 1:26.69 4th · 2nd on team -0.038
2013-04-13 CA Track Club 400m 1:17.74 1st · 1st on team -0.038 PR SR
2013-04-13 CA Track Club 100m 15.52 4th · 1st on team -0.038 PR SR
2013-03-30 Stockton Saints lj 7-02.00 -0.016
2013-03-30 Stockton Saints 400m 1:20.39 26th · 1st on team -0.016 PR SR
2013-03-30 Stockton Saints 100m 16.21 31st · 2nd on team -0.016 PR SR
2013-03-30 Stockton Saints 100m 15.75 22nd · 1st on team -0.016 PR SR
2013-03-30 Stockton Saints 400m 1:35.02 64th · 2nd on team -0.016
2013-03-23 Comets Youth Meet 400m 1:26.55 15th · 2nd on team -0.038 SR
2013-03-23 Comets Youth Meet 400m 1:21.89 12th · 1st on team -0.038 PR SR

2012 TF

Hercules Running Rebels (CA) · Grade 7-8

Date Meet Event Result Place Rating Difficulty PR/SR Flags
2012-05-19 3M Track Meet 100m 17.15 15th · 3rd on team -0.031
2012-05-19 3M Track Meet 100m 17.06 14th · 2nd on team -0.031
2012-05-19 3M Track Meet 100m 16.57 12th · 1st on team -0.031 PR SR
2012-05-05 Hercules Running Rebels / Top Pacers Invitational 100m 17.3 16th · 2nd on team -0.038
2012-05-05 Hercules Running Rebels / Top Pacers Invitational 100m 16.65 12th · 1st on team -0.038 PR SR
2012-04-21 Shor / Sheppard Classic lj 7-04.00 -0.022
2012-04-21 Shor / Sheppard Classic 400m 1:30.03 12th · 1st on team -0.022
2012-04-21 Shor / Sheppard Classic 100m 17.88 20th · 2nd on team -0.022
2012-04-21 Shor / Sheppard Classic 100m 17.21 13th · 1st on team -0.022 PR SR
2012-04-14 CA Spring Fling Track Invitational 400m 1:24.14 2nd · 1st on team -0.038 PR SR
2012-04-14 CA Spring Fling Track Invitational 100m 17.54 5th · 1st on team -0.038 PR SR
2012-04-14 CA Spring Fling Track Invitational 400m 1:39.51 9th · 2nd on team -0.038
2012-04-14 CA Spring Fling Track Invitational 100m 17.64 9th · 2nd on team -0.038
2012-04-07 Phenom Elite 400m 1:34.46 15th · 3rd on team -0.022 PR SR
2012-04-07 Phenom Elite 400m 1:26.3 7th · 1st on team -0.022 PR SR